Location: Del Amo
(33.8464°N, 118.2104°W)
Time: 15:42:57
(UTC+00:00)

Vanguard 3 - Visible Passes

Search period start: 13 September 2024 00:00
Search period end: 23 September 2024 00:00
Orbit: 507 x 3226 km, 33.4° (Epoch: 13 September)

Date Brightness Start Highest point End Pass type
(mag) Time Alt. Az. Time Alt. Az. Time Alt. Az.
13 Sep 11.1 12:29:27 10° SSW 12:44:50 36° SE 13:01:04 10° E visible
14 Sep 11.1 11:12:43 10° S 11:24:01 22° SE 11:36:40 10° E visible
15 Sep 10.9 12:01:46 10° SSW 12:16:31 37° SE 12:33:16 10° E visible
16 Sep 10.9 10:45:04 10° S 10:55:54 22° SE 11:08:40 10° E visible
16 Sep 10.6 12:52:48 10° SW 13:09:33 55° SSE 13:27:54 10° ENE visible
17 Sep 10.7 11:34:38 11° SSW 11:48:11 38° SE 12:05:10 10° E visible
18 Sep 10.7 10:20:20 15° SSE 10:27:48 22° SE 10:40:22 10° E visible
18 Sep 10.4 12:25:14 10° SW 12:41:03 56° SSE 12:59:53 10° ENE visible
19 Sep 10.4 11:10:08 20° S 11:19:52 39° SE 11:36:50 10° E visible
20 Sep 10.6 09:55:44 20° SSE 09:59:44 22° SE 10:11:51 10° E visible
20 Sep 10.3 11:59:53 17° SW 12:12:34 57° SSE 12:31:36 10° ENE visible
21 Sep 10.1 10:45:25 29° S 10:51:36 39° SE 11:08:15 10° E visible
21 Sep 10.2 12:49:52 10° WSW 13:06:01 74° SSE 13:25:45 10° E visible
22 Sep 10.5 09:30:54 22° SE 09:31:44 22° SE 09:43:11 10° E visible
22 Sep 10.0 11:35:01 28° SW 11:44:08 58° SSE 12:03:05 10° ENE visible
